Change the Weather History Date:

Saturday, March 22, 2014

  Actual Average Record
Temperature  
Mean Temperature 18 °F -  
Max Temperature 37 °F 34 °F 81 °F (2012)
Min Temperature 1 °F 15 °F -5 °F (2004)
Degree Days  
Heating Degree Days 46    
Moisture  
Dew Point 18 °F    
Average Humidity 77    
Maximum Humidity 89    
Minimum Humidity 54    
Precipitation  
Precipitation 0.04 in - - ()
Sea Level Pressure  
Sea Level Pressure 29.77 in    
Wind  
Wind Speed 4 mph (South)    
Max Wind Speed 15 mph    
Max Gust Speed 28 mph    
Visibility 7 miles    
Events Fog , Snow    
Averages and records for this station are not official NWS values.
T = Trace of Precipitation, MM = Missing Value Source: NWS Daily Summary

Daily Weather History Graph

Daily Weather History Graph

Search for Another Location

Airport or City:

Trip Planner

Search our weather history database for the weather conditions in past years. The results will help you decide how hot, cold, wet, or windy it might be!

Date:

Astronomy

Mar. 22, 2014 Rise Set
Actual Time 6:44 AM EDT 6:59 PM EDT
Civil Twilight 6:15 AM EDT 7:28 PM EDT
Nautical Twilight 5:40 AM EDT 8:03 PM EDT
Astronomical Twilight 5:05 AM EDT 8:38 PM EDT
Moon 12:27 AM EDT (3/22) 10:13 AM EDT (3/22)
Length of Visible Light 13h 13m
Length of Day
12h 15m
Waning Gibbous, 65% of the Moon is Illuminated
Mar 22
Waning Gibbous
Mar 23
Last Quarter
Mar 30
New
Apr 7
First Quarter
Apr 15
Full

Hourly Weather History & Observations

Time (EDT) Temp. Windchill Dew Point Humidity Pressure Visibility Wind Dir Wind Speed Gust Speed Precip Events Conditions
12:52 AM 15.1 °F 9.4 °F 9.0 °F 77% 29.99 in 10.0 mi East 3.5 mph - N/A   Clear
1:52 AM 9.0 °F - 6.1 °F 88% 30.00 in 10.0 mi Calm Calm - N/A   Clear
2:52 AM 6.1 °F - 1.0 °F 80% 30.01 in 10.0 mi Calm Calm - N/A   Clear
3:52 AM 5.0 °F -4.1 °F 1.0 °F 84% 30.01 in 10.0 mi SE 4.6 mph - N/A   Clear
4:52 AM 1.0 °F - -2.9 °F 83% 29.99 in 10.0 mi Calm Calm - N/A   Clear
5:52 AM 3.0 °F - -2.0 °F 80% 29.96 in 10.0 mi Calm Calm - N/A   Clear
6:52 AM 6.1 °F - 1.9 °F 83% 29.95 in 9.0 mi Calm Calm - N/A   Clear
7:52 AM 10.0 °F - 6.1 °F 84% 29.94 in 10.0 mi Calm Calm - N/A   Overcast
8:52 AM 14.0 °F - 10.0 °F 84% 29.90 in 10.0 mi Calm Calm - N/A   Overcast
9:52 AM 19.0 °F - 12.9 °F 77% 29.83 in 10.0 mi Calm Calm - N/A   Overcast
10:52 AM 26.1 °F - 15.1 °F 63% 29.75 in 10.0 mi Calm Calm - N/A   Overcast
11:52 AM 32.0 °F 22.5 °F 17.1 °F 54% 29.70 in 10.0 mi South 12.7 mph - N/A   Overcast
12:34 PM 32.0 °F 21.6 °F 21.9 °F 66% 29.63 in 2.5 mi South 15.0 mph 27.6 mph 0.00 in Snow Light Snow
12:40 PM 32.0 °F 22.1 °F 23.0 °F 69% 29.63 in 1.2 mi South 13.8 mph 24.2 mph 0.00 in Snow Light Snow
12:50 PM 30.2 °F 21.3 °F 24.8 °F 80% 29.63 in 0.5 mi SSE 10.4 mph 26.5 mph 0.00 in Snow Snow
12:52 PM 30.0 °F 22.4 °F 25.0 °F 82% 29.68 in 0.5 mi SSE 8.1 mph 26.5 mph 0.00 in Snow Snow
1:07 PM 30.0 °F 21.7 °F 26.1 °F 85% 29.62 in 0.2 mi SSE 9.2 mph 17.3 mph 0.01 in Fog , Snow Snow
1:31 PM 28.9 °F 21.9 °F 26.1 °F 89% 29.61 in 1.0 mi ESE 6.9 mph - 0.03 in Snow Light Snow
1:35 PM 28.9 °F 23.9 °F 26.1 °F 89% 29.61 in 2.0 mi East 4.6 mph - 0.03 in Snow Light Snow
1:40 PM 28.9 °F 22.8 °F 25.0 °F 85% 29.60 in 4.0 mi East 5.8 mph - 0.03 in Snow Light Snow
1:52 PM 28.9 °F 21.1 °F 24.1 °F 82% 29.65 in 8.0 mi SE 8.1 mph - 0.03 in Snow Light Snow
2:05 PM 30.0 °F 21.7 °F 24.1 °F 79% 29.58 in 9.0 mi SE 9.2 mph - 0.00 in   Overcast
2:52 PM 30.9 °F 26.2 °F 24.1 °F 76% 29.63 in 6.0 mi SE 4.6 mph - 0.00 in Snow Light Snow
3:52 PM 32.0 °F - 27.0 °F 82% 29.63 in 2.0 mi Calm Calm - 0.00 in Snow Light Snow
4:09 PM 33.1 °F - 28.0 °F 82% 29.57 in 4.0 mi Calm Calm - 0.00 in Snow Light Snow
4:52 PM 36.0 °F 29.6 °F 28.0 °F 73% 29.67 in 8.0 mi West 8.1 mph 21.9 mph 0.01 in   Overcast
5:15 PM 35.1 °F 25.5 °F 27.0 °F 72% 29.64 in 1.5 mi WNW 15.0 mph 27.6 mph 0.00 in Snow Light Snow
5:17 PM 34.0 °F 25.5 °F 27.0 °F 75% 29.64 in 0.8 mi West 11.5 mph 25.3 mph 0.00 in Snow Light Snow
5:28 PM 34.0 °F 26.6 °F 28.0 °F 79% 29.66 in 1.5 mi WNW 9.2 mph 19.6 mph 0.00 in Snow Light Snow
5:31 PM 34.0 °F 27.2 °F 27.0 °F 75% 29.66 in 3.0 mi WNW 8.1 mph 21.9 mph 0.00 in Snow Light Snow
5:52 PM 32.0 °F 22.5 °F 23.0 °F 69% 29.75 in 9.0 mi WNW 12.7 mph 25.3 mph 0.00 in   Overcast
6:52 PM 30.0 °F 24.1 °F 21.0 °F 69% 29.83 in 10.0 mi Variable 5.8 mph 16.1 mph 0.00 in   Overcast
7:52 PM 28.9 °F 23.9 °F 19.9 °F 69% 29.90 in 10.0 mi West 4.6 mph - N/A   Overcast
8:52 PM 28.9 °F 22.8 °F 19.9 °F 69% 29.90 in 10.0 mi Variable 5.8 mph - N/A   Overcast
9:52 PM 28.0 °F 22.8 °F 19.0 °F 69% 29.90 in 10.0 mi SW 4.6 mph - 0.00 in   Overcast
10:52 PM 27.0 °F - 19.0 °F 72% 29.90 in 10.0 mi Calm Calm - N/A   Overcast
11:52 PM 21.9 °F 17.2 °F 19.0 °F 89% 29.89 in 10.0 mi North 3.5 mph - N/A   Overcast